一网星座-0387星 (ONEWEB-0387 )

导读

ONEWEB-0387是英国(GB)于2021年10月14日发射的OneWeb低轨卫星,属于OneWeb卫星互联网星座组网卫星,主要用于为全球提供宽带互联网接入服务,尤其覆盖偏远地区与网络基础设施薄弱区域,弥补全球网络覆盖缺口,推动全球互联。它在低轨道运行,助力OneWeb构建低轨卫星通信网络。

基本信息
目录编号:
49313
目录名称:
ONEWEB-0387
国际标识:
2021-090AL
轨道中心:
EARTH
卫星名称:
一网星座-0387星
卫星全名:
一网星座-0387星 (ONEWEB-0387 )
卫星状态:
在轨 (已飞行1704 天)
发射日期:
2021-10-14 UTC
国别 :
英国 (GB)
星等 :
--
轨道信息
数据来源 国际轨道数据 AOE轨道数据
星历时间 2026-06-14T03:22:17+0800
16小时前
查看轨道信息
2026-06-13T04:00:00+0800
1天前
查看轨道信息
半长轴 7559.911km 7559.912km
偏心率 0.0002322 0.0002371
轨道倾角 87.918° 87.919°
近地点辐角 97.127° 98.499°
升交点赤经 275.127° 275.320°
平近点角 263.013° 314.053°
近地点 1180.018km 1179.982km
远地点 1183.53km 1183.568km
周期 109.027分钟 109.027分钟
每日圈数 13.207719 13.207714
详细信息
平衡模式:
三轴稳定
覆盖范围:
全球
运营商:
一网卫星公司
运营商所在国:
英国
制造商(研发单位):
一网卫星公司
制造商所在国:
英国
使用方式:
暂无
卫星简介
OneWeb卫星网络由648颗重约125公斤的微型卫星组成,运行在1200公里的轨道上。 每颗卫星都能够提供至少每秒8千兆位的吞吐量,以使用其高吞吐量的Ku频段有效载荷为家庭和移动平台提供互联网接入。该卫星仍在工作。
2D轨道图
3D轨道图
轨道高度分析图
轨道倾角分析图
轨道综合分析图
查看轨道综合分析图